When you browse on this site, cookies collect data to enhance your experience and personalize the content and advertising you see.
Visit our Privacy Policy to learn more. By continuing to use the site, you agree to this use of cookies and data.
  • In Sweden
  • List of Countries
  • For 7 days
  • Water Temperature
  • Satellite Maps
  • Weather Map
  • Weather Widgets
  • user-avatar
    Login

    Hourly Weather Chorley

    Today, 26 June, Wednesday

    Time Temperature Precipitation Wind Pressure Humidity
    00:00 +14°C° 0 mm 2 mps 758 mmHg 88%
    01:00 +13°C° 0 mm 2 mps 758 mmHg 87%
    02:00 +13°C° 0 mm 2 mps 758 mmHg 86%
    03:00 +13°C° 0 mm 2 mps 759 mmHg 85%
    04:00 +13°C° 0 mm 2 mps 759 mmHg 84%
    05:00 +12°C° 0 mm 3 mps 759 mmHg 84%
    06:00 +13°C° 0 mm 3 mps 760 mmHg 83%
    07:00 +13°C° 0 mm 3 mps 760 mmHg 81%
    08:00 +14°C° 0 mm 3 mps 760 mmHg 79%
    09:00 +14°C° 0 mm 3 mps 761 mmHg 77%
    10:00 +16°C° 0 mm 3 mps 761 mmHg 74%
    11:00 +18°C° 0 mm 3 mps 761 mmHg 71%
    12:00 +19°C° 0 mm 3 mps 762 mmHg 68%
    13:00 +19°C° 0 mm 3 mps 762 mmHg 68%
    14:00 +20°C° 0 mm 3 mps 761 mmHg 68%
    15:00 +20°C° 0 mm 3 mps 761 mmHg 67%
    16:00 +20°C° 0 mm 4 mps 761 mmHg 69%
    17:00 +19°C° 0 mm 4 mps 761 mmHg 70%
    18:00 +19°C° 0 mm 4 mps 761 mmHg 71%
    19:00 +17°C° 0 mm 4 mps 761 mmHg 72%
    20:00 +15°C° 0 mm 4 mps 762 mmHg 72%
    21:00 +13°C° 0 mm 3 mps 762 mmHg 73%
    22:00 +13°C° 0 mm 3 mps 762 mmHg 72%
    23:00 +12°C° 0 mm 3 mps 762 mmHg 72%

    Tomorrow, 27 June, Thursday

    Time Temperature Precipitation Wind Pressure Humidity
    00:00 +12°C° 0 mm 2 mps 762 mmHg 71%
    01:00 +12°C° 0 mm 2 mps 762 mmHg 70%
    02:00 +10°C° 0 mm 2 mps 762 mmHg 69%
    03:00 +10°C° 0 mm 2 mps 762 mmHg 68%
    04:00 +12°C° 0 mm 2 mps 762 mmHg 67%
    05:00 +12°C° 0 mm 2 mps 762 mmHg 66%
    06:00 +13°C° 0 mm 2 mps 762 mmHg 64%
    07:00 +15°C° 0 mm 2 mps 762 mmHg 62%
    08:00 +17°C° 0 mm 3 mps 762 mmHg 60%
    09:00 +19°C° 0 mm 3 mps 762 mmHg 59%
    10:00 +20°C° 0 mm 3 mps 762 mmHg 58%
    11:00 +21°C° 0 mm 4 mps 762 mmHg 57%
    12:00 +22°C° 0 mm 4 mps 762 mmHg 56%
    13:00 +22°C° 0 mm 4 mps 762 mmHg 56%
    14:00 +23°C° 0 mm 4 mps 762 mmHg 57%
    15:00 +23°C° 0 mm 5 mps 762 mmHg 57%
    16:00 +23°C° 0 mm 5 mps 761 mmHg 59%
    17:00 +22°C° 0 mm 5 mps 761 mmHg 62%
    18:00 +21°C° 0 mm 5 mps 760 mmHg 64%
    19:00 +20°C° 0 mm 5 mps 760 mmHg 68%
    20:00 +17°C° 0 mm 5 mps 760 mmHg 71%
    21:00 +15°C° 0 mm 5 mps 760 mmHg 74%
    22:00 +15°C° 0 mm 4 mps 760 mmHg 75%
    23:00 +14°C° 0 mm 4 mps 760 mmHg 77%

    Day after tomorrow, 28 June, Friday

    Time Temperature Precipitation Wind Pressure Humidity
    00:00 +13°C° 0 mm 4 mps 760 mmHg 78%
    01:00 +12°C° 0 mm 4 mps 760 mmHg 80%
    02:00 +12°C° 0 mm 3 mps 760 mmHg 82%
    03:00 +11°C° 0 mm 3 mps 759 mmHg 85%
    04:00 +12°C° 0 mm 3 mps 759 mmHg 83%
    05:00 +12°C° 0 mm 4 mps 759 mmHg 82%
    06:00 +13°C° 0 mm 4 mps 758 mmHg 81%
    07:00 +14°C° 0 mm 5 mps 758 mmHg 75%
    08:00 +15°C° 0 mm 5 mps 758 mmHg 70%
    09:00 +17°C° 0 mm 5 mps 758 mmHg 64%
    10:00 +19°C° 0 mm 6 mps 757 mmHg 62%
    11:00 +21°C° 0 mm 6 mps 757 mmHg 59%
    12:00 +22°C° 0 mm 6 mps 757 mmHg 57%
    13:00 +23°C° 0 mm 6 mps 756 mmHg 56%
    14:00 +23°C° 0 mm 6 mps 756 mmHg 56%
    15:00 +24°C° 0 mm 6 mps 755 mmHg 56%
    16:00 +23°C° 0 mm 6 mps 755 mmHg 59%
    17:00 +22°C° 0 mm 6 mps 755 mmHg 61%
    18:00 +22°C° 0 mm 5 mps 754 mmHg 64%
    19:00 +20°C° 0 mm 5 mps 754 mmHg 67%
    20:00 +19°C° 0 mm 5 mps 754 mmHg 69%
    21:00 +16°C° 0 mm 5 mps 754 mmHg 72%
    22:00 +17°C° 0 mm 4 mps 754 mmHg 73%
    23:00 +15°C° 0 mm 4 mps 753 mmHg 74%

    29 June, Saturday

    Time Temperature Precipitation Wind Pressure Humidity
    00:00 +14°C° 0 mm 3 mps 753 mmHg 75%
    01:00 +14°C° 0 mm 3 mps 753 mmHg 75%
    02:00 +13°C° 0 mm 3 mps 752 mmHg 75%
    03:00 +13°C° 0 mm 3 mps 752 mmHg 75%
    04:00 +14°C° 0 mm 3 mps 751 mmHg 75%
    05:00 +14°C° 0 mm 3 mps 751 mmHg 75%
    06:00 +16°C° 0 mm 3 mps 750 mmHg 75%
    07:00 +17°C° 0 mm 3 mps 750 mmHg 73%
    08:00 +19°C° 0 mm 3 mps 750 mmHg 71%
    09:00 +20°C° 0 mm 3 mps 749 mmHg 69%
    10:00 +20°C° 0.1 mm 3 mps 749 mmHg 72%
    11:00 +20°C° 0.1 mm 3 mps 748 mmHg 75%
    12:00 +20°C° 0.1 mm 3 mps 748 mmHg 79%
    13:00 +20°C° 0.5 mm 2 mps 747 mmHg 82%
    14:00 +19°C° 0.5 mm 2 mps 747 mmHg 85%
    15:00 +19°C° 0.5 mm 2 mps 747 mmHg 89%
    16:00 +19°C° 0 mm 2 mps 746 mmHg 87%
    17:00 +19°C° 0 mm 2 mps 746 mmHg 85%
    18:00 +19°C° 0 mm 2 mps 746 mmHg 83%
    19:00 +18°C° 0 mm 2 mps 746 mmHg 82%
    20:00 +17°C° 0 mm 3 mps 746 mmHg 81%
    21:00 +15°C° 0 mm 4 mps 747 mmHg 81%
    22:00 +15°C° 0 mm 4 mps 747 mmHg 82%
    23:00 +14°C° 0 mm 4 mps 747 mmHg 83%

    30 June, Sunday

    Time Temperature Precipitation Wind Pressure Humidity
    00:00 +14°C° 0 mm 5 mps 747 mmHg 84%
    01:00 +14°C° 0 mm 5 mps 747 mmHg 86%
    02:00 +13°C° 0 mm 5 mps 747 mmHg 87%
    03:00 +13°C° 0 mm 5 mps 746 mmHg 88%
    04:00 +14°C° 0.1 mm 4 mps 747 mmHg 88%
    05:00 +14°C° 0.1 mm 4 mps 747 mmHg 87%
    06:00 +14°C° 0.1 mm 4 mps 747 mmHg 86%
    07:00 +14°C° 0.1 mm 4 mps 747 mmHg 85%
    08:00 +15°C° 0.1 mm 5 mps 748 mmHg 83%
    09:00 +15°C° 0.1 mm 5 mps 748 mmHg 82%
    10:00 +15°C° 0.1 mm 5 mps 748 mmHg 79%
    11:00 +16°C° 0.1 mm 6 mps 748 mmHg 76%
    12:00 +16°C° 0.1 mm 7 mps 748 mmHg 74%
    13:00 +17°C° 0.1 mm 7 mps 748 mmHg 71%
    14:00 +17°C° 0.1 mm 7 mps 748 mmHg 69%
    15:00 +17°C° 0.1 mm 7 mps 748 mmHg 66%
    16:00 +17°C° 0.1 mm 7 mps 748 mmHg 68%
    17:00 +16°C° 0.1 mm 7 mps 748 mmHg 70%
    18:00 +16°C° 0.1 mm 6 mps 748 mmHg 71%
    19:00 +15°C° 0 mm 6 mps 749 mmHg 74%
    20:00 +14°C° 0 mm 5 mps 749 mmHg 77%
    21:00 +13°C° 0 mm 5 mps 749 mmHg 80%
    22:00 +13°C° 0 mm 5 mps 749 mmHg 80%
    23:00 +13°C° 0 mm 5 mps 750 mmHg 80%

    1 July, Monday

    Time Temperature Precipitation Wind Pressure Humidity
    00:00 +13°C° 0 mm 5 mps 750 mmHg 81%
    01:00 +13°C° 0.1 mm 5 mps 750 mmHg 79%
    02:00 +12°C° 0.1 mm 5 mps 750 mmHg 78%
    03:00 +11°C° 0.1 mm 6 mps 750 mmHg 76%
    04:00 +11°C° 0.1 mm 6 mps 750 mmHg 77%
    05:00 +11°C° 0.1 mm 6 mps 750 mmHg 77%
    06:00 +11°C° 0.1 mm 7 mps 750 mmHg 78%
    07:00 +11°C° 0.1 mm 7 mps 750 mmHg 77%
    08:00 +11°C° 0.1 mm 7 mps 750 mmHg 76%
    09:00 +12°C° 0.1 mm 8 mps 750 mmHg 75%
    10:00 +12°C° 0.1 mm 8 mps 750 mmHg 77%
    11:00 +12°C° 0.1 mm 8 mps 751 mmHg 79%
    12:00 +12°C° 0.1 mm 8 mps 751 mmHg 82%
    13:00 +13°C° 0.1 mm 8 mps 752 mmHg 76%
    14:00 +15°C° 0.1 mm 9 mps 752 mmHg 71%
    15:00 +15°C° 0.1 mm 9 mps 752 mmHg 66%
    16:00 +15°C° 0 mm 8 mps 753 mmHg 67%
    17:00 +13°C° 0 mm 8 mps 753 mmHg 68%
    18:00 +14°C° 0 mm 7 mps 754 mmHg 69%
    19:00 +12°C° 0 mm 7 mps 754 mmHg 72%
    20:00 +11°C° 0 mm 6 mps 755 mmHg 75%
    21:00 +10°C° 0 mm 5 mps 756 mmHg 78%
    22:00 +10°C° 0 mm 5 mps 756 mmHg 80%
    23:00 +11°C° 0 mm 4 mps 756 mmHg 82%
    Show more